{"data":{"norad_id":52879,"epoch":"2026-05-25T02:09:31.215168Z","epoch_age_seconds":66441,"freshness":"FRESH","line1":"1 52879U 22062BB  26145.08994462  .00000690  00000+0  61423-4 0  9997","line2":"2 52879  53.2132  31.1451 0001398  78.5280 281.5870 15.08839969217600","mean_motion":15.08839969,"eccentricity":0.0001398,"inclination_deg":53.2132,"raan_deg":31.1451,"arg_perigee_deg":78.528,"mean_anomaly_deg":281.587,"bstar":6.1423e-5,"rev_number":21760,"period_min":95.437556638586,"perigee_km":538.77636402708,"apogee_km":540.71060341033,"semimajor_km":6917.8804837187,"source":"CELESTRAK","updated_at":"2026-05-25T13:38:17.271293Z"}}